• en Suisse
  • Liste des pays
  • À 7 jours
  • Température de l'eau
  • Carte satellitaire
  • Carte météo
  • Widgets météo
  • user-avatar
    Se connecter

    Météo par heure à Northallerton

    Ce jour, 27 Mai, Dimanche

    Heure Température Précipitation Vent Pression Humidité
    00:00 +10°C° 0 mm 3 m/s 764 mmHg 95%
    01:00 +10°C° 0 mm 4 m/s 763 mmHg 95%
    02:00 +10°C° 0 mm 4 m/s 763 mmHg 95%
    03:00 +10°C° 0 mm 4 m/s 763 mmHg 95%
    04:00 +11°C° 0 mm 4 m/s 762 mmHg 93%
    05:00 +12°C° 0 mm 4 m/s 762 mmHg 92%
    06:00 +13°C° 0 mm 4 m/s 762 mmHg 88%
    07:00 +15°C° 0 mm 5 m/s 762 mmHg 84%
    08:00 +16°C° 0 mm 5 m/s 762 mmHg 79%
    09:00 +19°C° 0 mm 6 m/s 762 mmHg 75%
    10:00 +20°C° 0 mm 6 m/s 762 mmHg 72%
    11:00 +20°C° 0 mm 6 m/s 761 mmHg 70%
    12:00 +21°C° 0 mm 7 m/s 761 mmHg 67%
    13:00 +21°C° 0 mm 7 m/s 761 mmHg 67%
    14:00 +21°C° 0 mm 6 m/s 761 mmHg 68%
    15:00 +21°C° 0 mm 6 m/s 760 mmHg 68%
    16:00 +20°C° 0 mm 6 m/s 760 mmHg 72%
    17:00 +19°C° 0 mm 6 m/s 760 mmHg 75%
    18:00 +17°C° 0 mm 5 m/s 760 mmHg 78%
    19:00 +17°C° 0 mm 4 m/s 760 mmHg 83%
    20:00 +14°C° 0 mm 4 m/s 760 mmHg 88%
    21:00 +12°C° 0 mm 3 m/s 761 mmHg 93%
    22:00 +12°C° 0 mm 3 m/s 761 mmHg 94%
    23:00 +11°C° 0 mm 3 m/s 761 mmHg 95%

    Demain, 28 Mai, Lundi

    Heure Température Précipitation Vent Pression Humidité
    00:00 +12°C° 0 mm 2 m/s 761 mmHg 95%
    01:00 +12°C° 0 mm 2 m/s 761 mmHg 96%
    02:00 +10°C° 0 mm 2 m/s 761 mmHg 97%
    03:00 +10°C° 0 mm 2 m/s 761 mmHg 97%
    04:00 +12°C° 0 mm 2 m/s 761 mmHg 96%
    05:00 +13°C° 0 mm 2 m/s 761 mmHg 95%
    06:00 +13°C° 0 mm 3 m/s 761 mmHg 94%
    07:00 +14°C° 0 mm 3 m/s 761 mmHg 92%
    08:00 +16°C° 0 mm 3 m/s 762 mmHg 89%
    09:00 +17°C° 0 mm 3 m/s 762 mmHg 86%
    10:00 +19°C° 0 mm 3 m/s 762 mmHg 83%
    11:00 +20°C° 0 mm 4 m/s 762 mmHg 79%
    12:00 +21°C° 0 mm 4 m/s 762 mmHg 76%
    13:00 +21°C° 0 mm 4 m/s 762 mmHg 76%
    14:00 +21°C° 0 mm 4 m/s 762 mmHg 76%
    15:00 +22°C° 0 mm 4 m/s 762 mmHg 76%
    16:00 +21°C° 0 mm 4 m/s 762 mmHg 78%
    17:00 +20°C° 0 mm 4 m/s 762 mmHg 80%
    18:00 +19°C° 0 mm 4 m/s 762 mmHg 82%
    19:00 +17°C° 0 mm 3 m/s 762 mmHg 86%
    20:00 +16°C° 0 mm 3 m/s 763 mmHg 90%
    21:00 +14°C° 0 mm 2 m/s 763 mmHg 94%
    22:00 +14°C° 0 mm 2 m/s 763 mmHg 95%
    23:00 +13°C° 0 mm 2 m/s 763 mmHg 95%

    Après-demain, 29 Mai, Mardi

    Heure Température Précipitation Vent Pression Humidité
    00:00 +13°C° 0 mm 2 m/s 763 mmHg 96%
    01:00 +12°C° 0 mm 2 m/s 763 mmHg 96%
    02:00 +12°C° 0 mm 2 m/s 763 mmHg 97%
    03:00 +12°C° 0 mm 2 m/s 763 mmHg 97%
    04:00 +13°C° 0 mm 2 m/s 763 mmHg 96%
    05:00 +13°C° 0 mm 3 m/s 763 mmHg 95%
    06:00 +13°C° 0 mm 3 m/s 763 mmHg 95%
    07:00 +14°C° 0 mm 4 m/s 762 mmHg 92%
    08:00 +15°C° 0 mm 4 m/s 762 mmHg 90%
    09:00 +17°C° 0 mm 4 m/s 762 mmHg 88%
    10:00 +16°C° 0 mm 5 m/s 762 mmHg 86%
    11:00 +17°C° 0 mm 5 m/s 762 mmHg 83%
    12:00 +17°C° 0 mm 5 m/s 762 mmHg 81%
    13:00 +17°C° 0 mm 5 m/s 761 mmHg 79%
    14:00 +17°C° 0 mm 5 m/s 761 mmHg 77%
    15:00 +19°C° 0 mm 5 m/s 760 mmHg 75%
    16:00 +17°C° 0 mm 5 m/s 760 mmHg 77%
    17:00 +16°C° 0 mm 5 m/s 760 mmHg 78%
    18:00 +15°C° 0 mm 5 m/s 759 mmHg 80%
    19:00 +14°C° 0 mm 5 m/s 759 mmHg 85%
    20:00 +12°C° 0 mm 4 m/s 759 mmHg 90%
    21:00 +11°C° 0 mm 4 m/s 759 mmHg 95%
    22:00 +11°C° 0 mm 4 m/s 759 mmHg 95%
    23:00 +11°C° 0 mm 3 m/s 759 mmHg 95%

    30 Mai, Mercredi

    Heure Température Précipitation Vent Pression Humidité
    00:00 +11°C° 0 mm 3 m/s 758 mmHg 96%
    01:00 +11°C° 0 mm 3 m/s 758 mmHg 95%
    02:00 +11°C° 0 mm 3 m/s 757 mmHg 94%
    03:00 +11°C° 0 mm 3 m/s 757 mmHg 93%
    04:00 +12°C° 0 mm 4 m/s 757 mmHg 92%
    05:00 +12°C° 0 mm 4 m/s 756 mmHg 92%
    06:00 +12°C° 0 mm 4 m/s 756 mmHg 91%
    07:00 +13°C° 0 mm 4 m/s 756 mmHg 89%
    08:00 +14°C° 0 mm 4 m/s 756 mmHg 87%
    09:00 +14°C° 0 mm 4 m/s 756 mmHg 85%
    10:00 +15°C° 0 mm 4 m/s 756 mmHg 84%
    11:00 +15°C° 0 mm 4 m/s 755 mmHg 83%
    12:00 +17°C° 0 mm 3 m/s 755 mmHg 82%
    13:00 +18°C° 0 mm 3 m/s 755 mmHg 81%
    14:00 +18°C° 0 mm 3 m/s 755 mmHg 80%
    15:00 +19°C° 0 mm 3 m/s 755 mmHg 79%
    16:00 +18°C° 0 mm 3 m/s 755 mmHg 82%
    17:00 +18°C° 0 mm 3 m/s 755 mmHg 84%
    18:00 +17°C° 0 mm 3 m/s 754 mmHg 87%
    19:00 +16°C° 0 mm 3 m/s 755 mmHg 90%
    20:00 +15°C° 0 mm 2 m/s 755 mmHg 92%
    21:00 +14°C° 0 mm 2 m/s 755 mmHg 95%
    22:00 +14°C° 0 mm 2 m/s 755 mmHg 95%
    23:00 +14°C° 0 mm 2 m/s 755 mmHg 95%

    31 Mai, Jeudi

    Heure Température Précipitation Vent Pression Humidité
    00:00 +14°C° 0 mm 2 m/s 755 mmHg 96%
    01:00 +13°C° 0 mm 1 m/s 754 mmHg 96%
    02:00 +13°C° 0 mm 1 m/s 754 mmHg 96%
    03:00 +13°C° 0 mm 1 m/s 754 mmHg 96%
    04:00 +14°C° 0 mm 1 m/s 754 mmHg 94%
    05:00 +14°C° 0 mm 1 m/s 754 mmHg 93%
    06:00 +15°C° 0 mm 1 m/s 755 mmHg 91%
    07:00 +18°C° 0 mm 1 m/s 755 mmHg 87%
    08:00 +19°C° 0 mm 1 m/s 755 mmHg 82%
    09:00 +21°C° 0 mm 1 m/s 756 mmHg 78%
    10:00 +21°C° 0 mm 1 m/s 756 mmHg 75%
    11:00 +22°C° 0 mm 1 m/s 756 mmHg 71%
    12:00 +23°C° 0 mm 2 m/s 756 mmHg 68%
    13:00 +24°C° 0 mm 2 m/s 756 mmHg 66%
    14:00 +24°C° 0 mm 2 m/s 756 mmHg 64%
    15:00 +25°C° 0 mm 2 m/s 757 mmHg 63%
    16:00 +24°C° 0 mm 2 m/s 757 mmHg 68%
    17:00 +22°C° 0 mm 3 m/s 757 mmHg 73%
    18:00 +22°C° 0 mm 3 m/s 757 mmHg 79%
    19:00 +20°C° 0 mm 3 m/s 757 mmHg 84%
    20:00 +18°C° 0 mm 3 m/s 758 mmHg 89%
    21:00 +16°C° 0 mm 2 m/s 758 mmHg 94%
    22:00 +16°C° 0 mm 2 m/s 758 mmHg 95%
    23:00 +15°C° 0 mm 1 m/s 758 mmHg 95%

    1 Juin, Vendredi

    Heure Température Précipitation Vent Pression Humidité
    00:00 +14°C° 0 mm 1 m/s 759 mmHg 95%
    01:00 +14°C° 0 mm 1 m/s 759 mmHg 95%
    02:00 +14°C° 0 mm 1 m/s 759 mmHg 95%
    03:00 +14°C° 0 mm 1 m/s 759 mmHg 95%
    04:00 +14°C° 0 mm 1 m/s 759 mmHg 93%
    05:00 +15°C° 0 mm 1 m/s 759 mmHg 92%
    06:00 +15°C° 0 mm 2 m/s 759 mmHg 91%
    07:00 +16°C° 0,1 mm 2 m/s 759 mmHg 90%
    08:00 +16°C° 0,1 mm 2 m/s 759 mmHg 90%
    09:00 +18°C° 0,1 mm 1 m/s 760 mmHg 89%
    10:00 +17°C° 0,1 mm 2 m/s 760 mmHg 87%
    11:00 +18°C° 0,1 mm 2 m/s 760 mmHg 85%
    12:00 +19°C° 0,1 mm 2 m/s 760 mmHg 83%
    13:00 +20°C° 0 mm 3 m/s 760 mmHg 82%
    14:00 +20°C° 0 mm 3 m/s 760 mmHg 82%
    15:00 +20°C° 0 mm 3 m/s 760 mmHg 81%
    16:00 +20°C° 0 mm 3 m/s 760 mmHg 82%
    17:00 +19°C° 0 mm 3 m/s 760 mmHg 83%
    18:00 +19°C° 0 mm 3 m/s 760 mmHg 84%
    19:00 +17°C° 0 mm 3 m/s 760 mmHg 87%
    20:00 +16°C° 0 mm 2 m/s 760 mmHg 90%
    21:00 +14°C° 0 mm 2 m/s 761 mmHg 94%
    22:00 +14°C° 0 mm 2 m/s 761 mmHg 94%
    23:00 +13°C° 0 mm 1 m/s 761 mmHg 94%
    Voir plus